Temperature
23 22 22 22 22 21 21 21 20 20 20 19 19 19 19 19 19 19 18 18 18 18 18 18 18 18 18 18 18 17 17 18 17 17 17 18 18 18 18 18 18 18 18
22 22 22 22 22 22 21 21 20 20 20 20 19 19 19 19 19 19 19 18 18 18 18 18 18 18 18 17 17 17 17 18 17 17 17 17 18 18 18 18 18 18 18
23 23 22 22 22 22 21 21 21 20 20 19 19 19 19 19 19 19 19 18 18 18 18 18 17 17 17 17 17 17 17 17 17 17 17 17 17 18 18 18 18 18 18
23 23 23 23 23 22 22 21 21 20 20 20 19 19 19 19 19 19 19 18 18 18 18 18 17 17 17 17 17 17 17 17 17 17 17 17 17 17 17 17 18 18 18
23 24 24 24 23 23 22 21 21 21 20 20 19 19 19 19 19 18 18 18 18 18 18 18 18 17 17 17 17 17 17 17 17 17 17 17 17 17 17 17 17 17 18
24 24 24 23 23 23 22 22 21 21 20 20 19 19 19 19 19 19 18 18 18 18 18 18 17 17 17 17 17 17 17 17 17 17 17 17 17 17 17 16 17 17 17
24 24 23 23 23 23 22 22 21 21 20 20 19 19 19 19 19 18 18 18 18 18 18 17 17 17 17 17 17 17 17 17 17 17 17 17 17 16 16 16 16 16 16
24 24 24 23 23 23 23 22 21 21 20 20 20 19 19 19 19 18 18 18 18 18 17 17 17 17 17 17 17 17 17 17 17 17 16 16 16 16 16 16 16 16 16
24 24 24 24 23 23 23 22 21 21 21 20 20 19 19 19 19 18 18 18 18 17 17 17 17 17 17 17 17 17 17 17 17 16 16 16 16 16 16 16 16 16 15
24 23 23 23 23 23 22 22 21 21 20 20 20 20 19 19 18 18 18 18 17 17 17 17 17 17 17 17 17 16 16 16 16 16 16 16 16 16 16 16 16 15 15
24 24 23 23 23 23 22 22 21 21 20 20 19 19 19 19 18 18 18 17 17 17 17 17 17 16 16 16 16 16 16 16 16 16 16 16 16 16 16 15 15 15 15
23 23 23 23 22 22 22 21 21 21 20 20 19 19 19 18 18 18 17 17 17 17 17 17 16 16 16 16 16 16 16 16 16 16 15 15 15 15 15 15 15 15 15
23 23 23 23 22 22 22 21 21 20 20 20 19 19 19 18 18 17 17 17 17 17 16 16 16 16 16 16 16 16 15 15 15 15 15 15 15 15 15 15 15 14 14
23 23 23 22 22 22 21 21 20 20 20 19 19 19 18 18 18 17 17 17 17 16 16 16 16 16 16 16 15 15 15 15 15 15 15 15 15 15 15 14 14 14 14
22 23 23 22 22 21 21 21 20 20 19 19 18 18 18 18 17 17 17 16 16 16 16 16 15 15 15 15 15 15 15 15 15 14 14 14 14 14 14 14 14 14 13
22 22 22 22 21 21 21 20 20 20 19 19 18 18 18 17 17 17 16 16 16 16 15 15 15 15 15 14 15 15 14 14 14 14 14 14 14 13 13 13 13 13 13
22 22 22 21 21 21 20 20 20 19 19 18 18 18 17 17 17 16 16 16 16 15 15 15 15 14 14 14 14 14 14 14 14 13 13 13 13 13 13 13 12 12 12
22 22 21 21 21 20 20 20 19 19 18 18 18 17 17 17 16 16 16 15 15 15 14 14 14 14 14 13 13 13 13 13 13 13 13 13 12 12 12 12 12 12 11
22 22 21 21 20 20 20 19 19 18 18 18 17 17 16 16 16 15 15 15 15 14 14 14 13 13 13 13 13 13 13 13 12 12 12 12 12 11 11 11 11 11 11
21 21 21 21 20 20 19 19 19 18 18 17 17 16 16 16 15 15 15 14 14 14 14 13 13 13 13 13 12 12 12 12 12 12 11 11 11 11 11 11 11 11 10
21 21 20 20 20 20 19 19 18 18 17 17 16 16 16 15 15 15 14 14 14 14 13 13 13 13 13 12 12 12 12 12 12 11 11 11 10 10 10 10 10 10 10
21 20 20 20 19 19 19 18 18 17 17 16 16 16 15 15 15 14 14 14 13 13 13 13 12 12 12 12 11 11 11 11 11 11 10 10 10 10 10 10 10 10 9
20 20 19 19 19 18 18 18 17 17 16 16 15 15 15 15 14 14 14 13 13 13 12 12 12 12 12 11 11 11 11 11 11 10 10 10 10 10 9 9 9 9 9
20 19 19 18 18 18 17 17 17 16 16 15 15 15 14 14 14 13 13 13 13 13 12 12 12 12 11 11 11 11 10 10 10 10 10 10 9 9 9 9 9 9 8
19 18 18 18 18 17 17 16 16 16 15 15 15 14 14 14 13 13 13 12 12 12 12 12 12 11 11 11 11 10 10 10 10 10 9 9 9 9 9 8 8 8 8
18 18 17 17 17 16 16 16 15 15 15 15 14 14 14 13 13 13 12 12 12 12 11 11 11 11 11 10 10 10 10 10 9 9 9 9 9 8 8 8 8 8 8
Wind_Speed
8 6 7 7 7 7 8 8 7 7 5 3 3 3 3 2 2 3 5 5 5 5 5 4 4 4 4 5 4 3 3 3 2 1 2 3 3 5 5 6 6 8 10
6 6 6 7 8 8 8 8 7 7 6 4 3 2 2 2 2 1 2 4 5 5 5 4 4 4 4 4 4 4 3 3 3 3 1 2 3 2 4 4 5 7 7
10 9 8 7 7 8 9 8 7 6 6 5 3 2 1 1 0 1 2 2 4 4 4 4 4 4 4 5 5 5 5 4 3 3 3 3 3 2 2 2 3 4 4
10 9 9 9 9 9 8 7 7 6 6 6 5 4 3 3 3 2 2 2 3 3 5 5 5 4 4 5 5 5 5 4 4 3 3 3 3 2 2 2 1 2 3
10 10 11 11 9 8 7 6 6 6 6 6 6 5 4 3 2 1 2 3 3 3 4 4 4 4 4 5 5 4 5 5 5 4 3 3 2 3 3 3 2 2 2
9 9 7 6 6 7 7 7 7 6 5 6 5 5 5 4 2 2 2 3 2 3 3 3 3 3 3 4 4 4 4 4 4 4 3 3 2 3 4 4 3 3 3
8 8 8 8 7 8 8 7 7 6 5 6 5 5 4 3 3 3 3 3 2 2 3 2 2 2 3 3 3 3 4 4 4 4 3 3 3 2 3 3 3 3 2
7 9 9 9 8 8 7 7 7 6 5 5 5 4 3 3 2 2 2 2 2 3 2 2 2 2 2 2 2 2 3 2 3 3 3 2 3 2 3 3 3 3 2
7 8 8 8 8 8 7 7 7 6 5 5 4 3 3 3 2 2 1 1 1 1 1 1 1 2 2 1 1 0 0 1 2 2 2 2 2 2 2 2 3 3 3
6 7 7 7 7 7 6 5 5 5 4 3 3 3 2 2 2 1 1 1 1 1 2 2 2 3 3 3 2 2 1 1 0 1 1 1 1 1 1 2 2 2 3
6 7 6 6 6 7 6 6 5 4 4 3 3 3 3 3 3 2 1 1 2 2 2 2 2 3 3 3 3 2 2 2 2 1 1 1 0 0 0 0 0 0 1
5 6 6 6 6 6 5 5 5 4 4 4 4 3 4 4 3 3 2 2 2 2 2 2 3 3 3 3 3 3 3 3 3 3 3 2 2 3 2 2 1 1 1
6 6 6 7 7 6 5 4 5 4 4 4 5 5 4 4 3 3 2 2 2 3 3 3 3 3 3 3 4 4 4 4 4 4 4 4 4 4 3 3 2 2 2
6 6 6 6 6 6 6 5 5 5 5 5 5 5 4 4 3 3 3 3 3 3 3 3 3 3 4 4 4 5 5 5 5 5 5 5 4 4 4 4 4 3 4
6 7 7 6 6 6 6 5 5 5 5 6 5 4 4 4 4 4 4 4 4 5 4 5 5 5 5 5 6 6 7 6 7 7 7 7 8 8 6 5 4 5 4
7 7 7 7 7 7 6 6 6 5 6 6 5 5 5 5 5 5 5 5 5 5 6 6 6 7 6 9 10 8 7 7 8 8 7 8 9 10 11 11 10 7 5
7 7 7 7 6 6 7 7 6 6 6 6 5 5 5 5 5 5 5 5 5 6 7 7 7 7 8 10 11 12 9 8 8 7 7 7 8 8 8 11 12 12 11
8 7 7 6 6 6 6 6 7 7 7 6 6 5 5 5 5 6 6 5 5 6 6 7 7 7 8 10 11 12 10 9 8 8 8 8 8 8 8 9 10 9 9
7 7 7 7 7 7 8 8 7 7 7 6 6 5 5 6 6 6 5 5 6 6 6 6 6 7 7 8 10 10 8 8 9 8 8 8 8 9 10 9 9 9 8
7 7 7 8 8 7 9 9 8 7 6 6 6 6 6 6 6 6 5 5 6 6 6 7 6 7 6 8 9 8 7 7 7 7 8 10 10 10 10 8 8 8 6
8 8 8 7 6 7 9 9 8 7 6 6 7 6 6 6 7 6 5 6 6 7 7 7 6 6 6 7 9 8 6 6 6 6 6 6 11 11 11 9 7 6 5
8 8 8 6 6 7 8 8 6 6 7 7 7 7 6 6 6 7 6 6 6 7 6 6 6 5 5 6 7 9 8 7 7 5 4 5 10 12 11 9 8 9 7
8 7 9 8 6 6 7 8 6 7 8 8 7 7 6 6 6 6 6 5 5 5 4 4 4 3 4 5 8 9 9 9 6 5 7 9 11 10 9 11 10 8 6
8 7 9 8 6 5 5 6 7 7 8 8 7 7 7 6 6 5 4 4 4 4 4 4 4 3 3 3 3 4 5 7 7 6 8 10 12 9 8 7 7 6 5
6 7 7 7 7 6 6 6 7 8 8 8 7 7 6 7 6 5 4 3 2 2 4 3 4 4 3 2 4 5 4 4 4 5 5 5 5 6 5 5 5 5 5
7 7 7 7 6 6 6 6 6 8 9 8 7 6 6 6 6 6 6 9 6 7 6 5 4 3 4 6 8 8 8 8 8 6 5 4 4 4 4 4 4 4 4
Wind_Direction
210 197 193 188 183 184 184 186 185 186 171 166 177 186 216 223 227 228 230 232 227 218 213 232 232 221 222 224 218 215 221 231 205 208 288 289 258 245 243 240 239 239 237
199 196 197 189 188 189 191 186 187 184 184 185 175 178 181 203 220 236 245 238 230 222 221 221 234 230 227 234 227 214 214 224 189 179 190 304 316 283 248 236 235 240 236
203 200 199 202 197 193 193 193 188 186 187 180 156 124 89 43 10 276 270 264 249 236 230 231 233 232 225 231 229 217 213 225 217 194 179 194 237 289 301 257 242 240 234
205 196 194 201 202 197 185 182 180 183 183 173 173 175 185 219 230 230 252 277 260 245 236 236 234 236 233 234 236 222 216 212 225 217 217 214 187 203 293 312 294 267 250
203 200 196 197 195 183 175 178 177 185 187 183 182 181 198 217 225 245 273 281 282 267 253 245 241 239 238 236 236 227 218 215 216 212 207 217 216 211 223 270 292 305 278
195 194 184 173 173 167 172 178 181 190 179 176 178 183 194 197 210 257 278 286 288 287 279 267 253 248 244 238 233 225 223 224 222 219 207 197 201 206 211 236 259 278 285
179 169 166 173 173 172 178 178 181 189 179 177 181 186 194 194 211 238 256 277 293 293 292 290 277 266 253 244 232 224 229 220 217 220 223 224 229 210 206 217 244 259 278
167 168 174 175 176 178 178 174 178 178 172 177 181 182 188 199 224 239 242 253 263 277 295 304 305 303 295 269 225 228 236 217 221 226 218 223 236 223 210 206 212 246 260
171 168 171 174 174 171 171 174 172 169 174 180 176 177 184 187 213 233 237 257 280 296 335 357 7 11 23 35 70 67 234 201 220 223 211 225 247 234 234 223 211 215 241
163 161 167 170 165 154 149 152 158 163 162 160 168 170 172 172 169 144 126 55 10 20 43 41 38 40 48 49 68 71 70 91 93 169 160 229 277 246 231 216 221 216 222
169 166 160 153 140 131 137 146 143 137 140 146 143 135 135 129 119 107 79 64 48 45 45 48 48 45 50 56 66 62 65 71 52 45 81 43 348 68 82 116 112 144 168
155 146 139 132 130 127 127 135 135 144 150 142 131 127 120 111 105 93 71 66 62 55 56 57 57 52 51 57 69 64 58 58 51 46 58 51 54 54 59 75 78 81 103
143 135 135 136 136 131 129 132 133 140 133 127 120 115 113 110 106 93 72 63 59 49 47 56 59 53 54 63 69 75 68 60 53 52 55 53 62 55 54 64 71 76 83
144 143 139 137 138 138 142 141 136 133 128 123 120 119 119 117 109 93 76 65 62 57 50 53 57 56 61 66 69 75 74 68 58 53 55 55 62 64 67 70 71 80 82
153 154 152 149 145 140 137 133 131 126 125 120 117 117 111 102 93 84 76 68 64 66 62 61 58 58 67 67 74 76 76 70 63 55 54 58 64 66 68 74 75 82 86
167 159 154 154 154 153 147 137 135 134 126 121 119 115 108 99 92 88 84 77 67 65 64 64 64 62 68 73 77 82 75 69 66 60 53 55 57 62 65 68 68 75 89
168 164 162 161 159 156 150 148 143 132 125 120 116 118 115 106 99 97 90 83 76 74 70 66 68 68 66 74 79 79 82 74 67 62 58 58 52 59 67 65 62 60 63
162 161 156 149 146 141 137 133 129 129 126 120 117 116 115 110 102 96 92 85 81 80 79 73 72 75 69 76 81 81 77 71 61 57 59 64 56 60 70 73 66 58 51
153 152 148 141 137 137 137 131 129 129 127 127 127 125 123 119 111 104 97 90 90 83 79 80 80 79 68 71 83 86 82 75 64 55 56 62 62 56 67 76 73 64 53
141 138 130 127 132 139 139 135 137 137 141 143 139 135 130 126 121 114 103 94 95 94 91 81 74 77 73 70 80 89 91 84 75 62 54 56 64 61 66 75 77 73 56
138 134 129 133 138 141 140 140 142 150 150 139 130 127 126 124 121 113 105 104 100 94 91 88 74 68 66 70 77 85 92 97 89 76 61 54 61 64 64 70 74 81 78
136 136 132 134 133 139 140 142 151 148 136 132 129 128 125 125 122 117 109 106 106 101 95 93 81 63 57 65 77 82 86 96 96 87 75 68 70 70 66 68 68 70 70
140 136 135 130 130 136 142 146 149 140 136 133 131 127 122 113 115 118 118 111 106 109 106 103 98 80 67 66 74 81 86 89 90 89 88 82 75 70 65 61 63 64 68
140 136 133 133 134 131 130 140 143 141 140 138 134 129 125 114 102 101 111 119 119 120 122 121 116 104 87 82 84 84 85 84 85 84 79 75 70 67 60 55 52 54 61
135 135 140 141 140 135 129 133 140 140 139 138 135 129 123 119 106 92 77 97 96 136 144 147 142 136 129 147 137 124 107 106 107 100 79 68 66 64 57 53 49 50 53
137 133 134 133 133 132 133 137 141 143 143 142 139 136 132 127 124 115 87 56 69 78 84 111 130 116 125 131 122 112 107 109 112 97 89 82 78 78 73 67 57 50 49
Height
1534 1537 1539 1541 1543 1545 1547 1549 1550 1552 1553 1554 1555 1556 1557 1558 1559 1559 1560 1560 1560 1560 1561 1560 1561 1561 1561 1561 1562 1562 1563 1563 1564 1564 1564 1564 1564 1564 1564 1565 1565 1565 1566
1532 1534 1537 1539 1541 1543 1545 1547 1549 1550 1552 1553 1554 1555 1556 1557 1557 1557 1558 1558 1558 1558 1558 1558 1558 1558 1558 1558 1559 1559 1560 1560 1561 1562 1562 1562 1562 1561 1561 1562 1562 1562 1563
1528 1531 1534 1537 1539 1541 1543 1545 1547 1548 1549 1551 1553 1554 1554 1555 1555 1555 1555 1556 1556 1556 1555 1555 1554 1554 1554 1555 1555 1556 1557 1557 1558 1558 1560 1559 1558 1558 1558 1558 1559 1559 1560
1525 1528 1531 1534 1536 1538 1541 1543 1545 1546 1548 1549 1550 1551 1551 1552 1553 1553 1553 1554 1553 1553 1552 1552 1551 1551 1551 1551 1552 1552 1553 1554 1554 1555 1556 1557 1557 1557 1556 1556 1556 1556 1557
1521 1524 1527 1530 1532 1536 1539 1541 1543 1545 1546 1547 1548 1549 1550 1550 1551 1551 1551 1551 1551 1550 1550 1549 1548 1548 1547 1547 1548 1548 1549 1550 1550 1551 1552 1552 1553 1554 1554 1552 1553 1553 1553
1517 1521 1525 1528 1531 1533 1536 1539 1541 1542 1544 1545 1546 1547 1548 1548 1549 1549 1549 1549 1548 1548 1547 1546 1545 1545 1544 1544 1544 1544 1545 1546 1546 1547 1548 1549 1549 1549 1550 1549 1548 1549 1549
1514 1518 1521 1525 1528 1531 1533 1536 1538 1540 1541 1543 1544 1545 1546 1547 1547 1547 1547 1547 1546 1545 1544 1544 1543 1542 1542 1541 1541 1541 1541 1542 1542 1543 1544 1545 1545 1546 1546 1546 1546 1546 1546
1512 1515 1518 1521 1525 1528 1531 1534 1536 1538 1539 1541 1542 1543 1544 1545 1545 1546 1545 1545 1544 1543 1543 1542 1541 1540 1539 1539 1539 1538 1538 1539 1539 1540 1540 1541 1541 1542 1542 1543 1543 1542 1543
1510 1513 1516 1520 1523 1526 1529 1532 1535 1536 1538 1539 1541 1541 1542 1543 1543 1544 1544 1543 1543 1542 1541 1540 1539 1538 1538 1537 1537 1536 1536 1536 1536 1537 1537 1537 1538 1538 1539 1539 1540 1540 1539
1510 1513 1516 1519 1522 1525 1529 1532 1534 1535 1537 1538 1539 1540 1541 1541 1542 1542 1542 1542 1541 1540 1540 1539 1538 1537 1536 1536 1535 1535 1535 1535 1534 1534 1534 1535 1535 1535 1535 1536 1536 1536 1537
1509 1512 1515 1519 1522 1524 1528 1531 1532 1534 1535 1537 1538 1539 1540 1540 1541 1541 1541 1540 1540 1539 1538 1537 1536 1536 1535 1534 1534 1534 1534 1533 1533 1532 1532 1532 1532 1532 1532 1533 1533 1533 1534
1510 1513 1515 1518 1521 1523 1527 1529 1531 1533 1534 1536 1537 1538 1539 1539 1539 1539 1539 1539 1538 1537 1537 1536 1535 1534 1534 1533 1533 1533 1533 1532 1531 1531 1531 1530 1530 1530 1530 1530 1531 1531 1531
1510 1513 1515 1518 1520 1523 1526 1528 1530 1532 1534 1535 1536 1537 1538 1538 1539 1539 1538 1538 1537 1536 1536 1535 1534 1534 1533 1533 1532 1532 1532 1532 1531 1531 1530 1530 1529 1529 1529 1529 1529 1530 1530
1510 1512 1515 1517 1520 1522 1525 1528 1530 1531 1533 1534 1535 1536 1537 1538 1538 1538 1537 1537 1537 1536 1535 1534 1534 1533 1533 1533 1532 1532 1532 1532 1531 1531 1530 1529 1529 1529 1528 1528 1528 1529 1529
1509 1512 1514 1517 1520 1522 1525 1527 1529 1530 1532 1533 1535 1535 1536 1537 1537 1537 1537 1537 1536 1536 1535 1534 1534 1534 1533 1533 1533 1533 1533 1532 1532 1531 1530 1530 1529 1529 1529 1528 1528 1529 1529
1509 1512 1514 1517 1519 1522 1524 1526 1528 1530 1532 1533 1534 1535 1536 1536 1537 1537 1537 1537 1536 1536 1536 1535 1535 1534 1534 1534 1534 1534 1534 1533 1533 1532 1532 1531 1531 1530 1530 1529 1529 1529 1529
1508 1511 1514 1517 1519 1522 1524 1526 1528 1530 1531 1532 1533 1534 1535 1536 1536 1537 1537 1537 1537 1536 1536 1536 1536 1536 1536 1536 1536 1535 1535 1534 1534 1534 1533 1533 1533 1532 1532 1531 1531 1530 1530
1507 1511 1514 1516 1519 1522 1524 1526 1528 1529 1531 1532 1533 1534 1534 1535 1536 1536 1537 1537 1537 1537 1536 1537 1537 1537 1537 1537 1537 1537 1537 1536 1536 1536 1535 1535 1535 1535 1534 1534 1533 1532 1532
1507 1510 1513 1516 1519 1521 1523 1525 1527 1529 1530 1531 1532 1533 1534 1535 1536 1537 1537 1537 1537 1538 1538 1538 1539 1539 1539 1539 1539 1539 1538 1538 1538 1538 1538 1538 1537 1537 1537 1536 1535 1535 1535
1507 1510 1512 1515 1518 1520 1522 1524 1526 1527 1529 1530 1531 1533 1534 1535 1535 1536 1537 1538 1538 1539 1539 1539 1540 1540 1540 1541 1541 1541 1541 1540 1540 1540 1540 1540 1540 1540 1539 1539 1538 1537 1537
1505 1508 1511 1514 1516 1519 1521 1523 1524 1526 1528 1529 1531 1532 1534 1535 1536 1536 1538 1539 1539 1540 1540 1540 1541 1541 1542 1542 1542 1543 1543 1543 1542 1542 1542 1542 1542 1542 1542 1541 1540 1540 1540
1503 1507 1509 1512 1515 1517 1519 1521 1523 1525 1527 1528 1530 1532 1533 1535 1536 1537 1538 1539 1540 1540 1541 1541 1542 1542 1543 1543 1544 1544 1544 1545 1545 1544 1545 1545 1545 1544 1544 1543 1543 1543 1542
1503 1506 1508 1511 1514 1516 1518 1520 1522 1524 1526 1528 1530 1531 1533 1535 1536 1537 1538 1539 1540 1541 1541 1542 1543 1543 1544 1544 1545 1546 1546 1546 1546 1546 1547 1547 1547 1546 1546 1546 1545 1545 1544
1502 1505 1507 1509 1512 1515 1517 1519 1521 1523 1525 1527 1529 1531 1533 1534 1536 1537 1538 1539 1540 1541 1542 1542 1543 1544 1545 1545 1546 1547 1547 1548 1548 1548 1549 1549 1549 1548 1548 1548 1547 1546 1546
1501 1504 1507 1508 1511 1514 1516 1519 1521 1522 1524 1526 1528 1530 1532 1534 1535 1537 1539 1540 1541 1542 1543 1544 1544 1545 1545 1547 1547 1548 1548 1549 1549 1550 1550 1550 1550 1549 1549 1549 1549 1548 1548
1501 1504 1507 1509 1511 1513 1516 1518 1520 1522 1524 1526 1527 1529 1531 1533 1535 1537 1538 1540 1541 1542 1543 1544 1545 1546 1547 1547 1548 1549 1550 1550 1551 1551 1551 1551 1551 1551 1550 1550 1550 1550 1549